Regional Weather Roundup
Issued by NWS

Home | Current Version | Previous Version | Graphics & Text | Print | Product List | Glossary On
Versions: 1 2 3 4 5 6 7 8 9 10 11 12 13 14 15 16 17 18 19 20 21 22 23 24 25 26 27 28 29 30 31 32 33 34 35 36 37 38 39 40 41 42 43 44 45 46 47 48 49 50
000
ASUS45 KABQ 251110
RWRNM
NEW MEXICO REGIONAL WEATHER ROUNDUP
NATIONAL WEATHER SERVICE ALBUQUERQUE NM
500 AM MDT THU MAY 25 2017

NOTE: "FAIR" MEANS FEW OR NO CLOUDS BELOW 12,000 FEET AGL WITH NO
       SIGNIFICANT WEATHER OR OBSTRUCTIONS TO VISION.

      THIS PRODUCT IS RELEASED AS TWO VERSIONS.  ONE VERSION NEAR
      THE TOP OF THE HOUR CONTAINING PRELIMINARY DATA FROM ALBUQUERQUE
      AND OTHER STATIONS.  A FINAL VERSION WITH ADDITIONAL DATA IS
      ISSUED ABOUT 10 MINUTES AFTER THE HOUR.

NMZ501-503-504-510>518-251200-
NORTHWEST PLATEAU/NORTHCENTRAL MOUNTAINS

CITY           SKY/WX    TMP DP  RH WIND       PRES   REMARKS
FARMINGTON     FAIR      62  22  21 SW10      29.75S
LOS ALAMOS     FAIR      63  19  18 W18G31    29.89F
SANTA FE       FAIR      59  26  28 W8        29.84S
TAOS           FAIR      46  21  36 N3        29.90S
ANGEL FIRE     FAIR      50  25  37 W10G16    29.95S

$$
NMZ402-403-502-505>509-251200-
WESTCENTRAL MOUNTAINS/SOUTHWEST MOUNTAINS

CITY           SKY/WX    TMP DP  RH WIND       PRES   REMARKS
GALLUP         FAIR      57  24  28 SW12      29.90S
SILVER CITY    FAIR      51  22  32 NW7       29.92S

$$
NMZ407-409-411-412-251200-
SOUTHERN DESERTS

CITY           SKY/WX    TMP DP  RH WIND       PRES   REMARKS
DEMING         FAIR      62  23  22 CALM      29.86R
LAS CRUCES     FAIR      67  18  15 W14       29.86S
HOLLOMAN AFB   FAIR      64  20  18 SE8       29.82R
T OR C         FAIR      74  22  14 W18       29.82S

$$
NMZ519>523-251200-
CENTRAL VALLEYS/CENTRAL HIGHLANDS

CITY           SKY/WX    TMP DP  RH WIND       PRES   REMARKS
ALBUQUERQUE    MOCLDY    69  22  16 VRB6      29.82R
DOUBLE EAGLE   FAIR      63  25  23 SW17      29.83S
MORIARTY ARPT  FAIR      63  25  23 W15       29.86S
CLINES CORNERS FAIR      55  22  27 W14       29.90S
BELEN          FAIR      66  21  18 W9        29.82F
SOCORRO        FAIR      76  21  12 W8        29.79R

$$
NMZ524>526-539-540-251200-
SOUTHCENTRAL MOUNTAINS

CITY           SKY/WX    TMP DP  RH WIND       PRES   REMARKS
RUIDOSO        FAIR      66  19  16 W12G20    29.95S

$$
NMZ527>531-251200-
NORTHEAST HIGHLANDS/NORTHEAST PLAINS

CITY           SKY/WX    TMP DP  RH WIND       PRES   REMARKS
LAS VEGAS      FAIR      61  22  22 SW3       29.86R
RATON          FAIR      48  33  56 SW5       29.77S
CLAYTON        FAIR      63  33  32 W22G28    29.65S

$$
NMZ532>537-251200-
EASTCENTRAL PLAINS

CITY           SKY/WX    TMP DP  RH WIND       PRES   REMARKS
SANTA ROSA     FAIR      63  26  24 W5        29.73S
TUCUMCARI      FAIR      62  35  36 W13       29.63R
CANNON AFB     FAIR      64  33  31 W16       29.70S
CLOVIS AIRPORT FAIR      61  34  36 W9        29.69R

$$
NMZ028-029-538-251200-
SOUTHEAST PLAINS

CITY           SKY/WX    TMP DP  RH WIND       PRES   REMARKS
ROSWELL        FAIR      70  23  17 N7        29.68R
ARTESIA        FAIR      73  23  15 W18G25    29.70R
CARLSBAD       FAIR      75  23  14 W17       29.67R
HOBBS          FAIR      57  43  58 SW7       29.72S


$$




USA.gov is the U.S. government's official web portal to all federal, state and local government web resources and services.